BMCB-5 Weather Reports


Display with metric or nautical units.
time (UTC)temp
F
wind
direction
speed
MPH
gust
MPH
rain 1hr
in
rain 24hr
in
rain mn
in
humidity
%
barometer
mb
20260510053100 50 0 0.0 0.0 0.00 0.00 0.00 88 1019.6
20260510051056 50 0 0.0 0.0 0.00 0.00 0.00 88 1019.6
20260510050057 50 0 0.0 0.0 0.00 0.00 0.00 89 1019.6
20260510045057 50 0 0.0 0.0 0.00 0.00 0.00 88 1019.7
20260510044056 49 0 0.0 0.0 0.00 0.00 0.00 88 1019.7
20260510041056 49 0 0.0 0.0 0.00 0.00 0.00 87 1019.6
20260510040057 50 0 0.0 0.0 0.00 0.00 0.00 86 1019.6
20260510035058 50 0 0.0 0.0 0.00 0.00 0.00 85 1019.6
20260510034058 49 0 0.0 0.0 0.00 0.00 0.00 86 1019.7
20260510033059 49 0 0.0 0.0 0.00 0.00 0.00 86 1019.7
20260510032056 50 0 0.0 0.0 0.00 0.00 0.00 85 1019.7
20260510025053 50 0 0.0 0.0 0.00 0.00 0.00 83 1019.9
20260510024056 50 0 0.0 0.0 0.00 0.00 0.00 82 1019.9
20260510023057 50 0 0.0 0.0 0.00 0.00 0.00 81 1019.9
20260510022055 50 0 0.0 0.0 0.00 0.00 0.00 82 1019.9
20260510021054 50 0 0.0 0.0 0.00 0.00 0.00 81 1019.9
20260510020056 50 0 0.0 0.0 0.00 0.00 0.00 81 1020.0
20260510015057 51 0 0.0 0.0 0.00 0.00 0.00 80 1020.1
20260510014055 51 0 0.0 0.0 0.00 0.00 0.00 80 1020.1
20260510013057 51 0 0.0 0.0 0.00 0.00 0.00 80 1020.1
20260510012056 51 0 0.0 0.0 0.00 0.00 0.00 80 1020.2
20260510011054 51 0 0.0 0.0 0.00 0.00 0.00 80 1020.4
20260510010057 51 0 0.0 0.0 0.00 0.00 0.00 80 1020.4
20260510005055 51 0 0.0 0.0 0.00 0.00 0.00 81 1020.5
20260510004058 51 0 0.0 0.0 0.00 0.00 0.00 82 1020.5
20260510003055 51 0 0.0 0.0 0.00 0.00 0.00 80 1020.5
20260510002055 52 0 0.0 0.0 0.00 0.00 0.00 78 1020.6
20260510001056 52 0 0.0 0.0 0.00 0.00 0.00 78 1020.7
20260510000059 52 0 0.0 0.0 0.00 0.00 0.00 79 1020.8
20260509235111 53 0 0.0 0.0 0.00 0.00 0.00 78 1020.8
20260509232108 53 0 0.0 0.0 0.00 0.00 0.00 78 1020.9
20260509231103 53 0 0.0 0.0 0.00 0.00 0.00 77 1021.1
20260509230105 53 0 0.0 0.0 0.00 0.00 0.00 77 1021.0
20260509225109 53 0 0.0 0.0 0.00 0.00 0.00 76 1020.9
20260509224108 54 0 0.0 0.0 0.00 0.00 0.00 76 1020.9
20260509223106 54 0 0.0 0.0 0.00 0.00 0.00 75 1020.9
20260509222108 54 0 0.0 0.0 0.00 0.00 0.00 76 1021.0
20260509221107 54 0 0.0 0.0 0.00 0.00 0.00 77 1021.0
20260509215115 55 0 0.0 0.0 0.00 0.00 0.00 74 1021.0
20260509205116 56 0 0.0 0.0 0.00 0.00 0.00 72 1020.9
20260509203111 57 0 0.0 0.0 0.00 0.00 0.00 69 1021.0
20260509201118 59 0 0.0 0.0 0.00 0.00 0.00 66 1020.8
20260509195113 59 0 0.0 0.0 0.00 0.00 0.00 67 1020.7
20260509193111 60 0 0.0 0.0 0.00 0.00 0.00 65 1020.5
20260509192113 61 0 0.0 0.0 0.00 0.00 0.00 61 1020.5
20260509185113 63 0 0.0 0.0 0.00 0.00 0.00 58 1020.3
20260509184109 64 0 0.0 0.0 0.00 0.00 0.00 57 1020.3
20260509182111 66 0 0.0 0.0 0.00 0.00 0.00 54 1020.2
20260509174111 68 0 0.0 0.0 0.00 0.00 0.00 51 1020.2
20260509173108 68 0 0.0 0.0 0.00 0.00 0.00 51 1020.1
20260509172109 68 0 0.0 0.0 0.00 0.00 0.00 50 1019.9
20260509171104 69 0 0.0 0.0 0.00 0.00 0.00 49 1019.9
20260509170108 69 0 0.0 0.0 0.00 0.00 0.00 48 1019.9
20260509165105 69 0 0.0 0.0 0.00 0.00 0.00 48 1020.0
20260509164108 69 0 0.0 0.0 0.00 0.00 0.00 48 1020.1
20260509162106 69 0 0.0 0.0 0.00 0.00 0.00 47 1020.1
20260509161106 69 0 0.0 0.0 0.00 0.00 0.00 46 1020.1
20260509155100 69 0 0.0 0.0 0.00 0.00 0.00 46 1020.1
20260509154104 70 0 0.0 0.0 0.00 0.00 0.00 46 1020.1
20260509153104 70 0 0.0 0.0 0.00 0.00 0.00 48 1020.1
20260509151101 70 0 0.0 0.0 0.00 0.00 0.00 47 1020.3
20260509145103 71 0 0.0 0.0 0.00 0.00 0.00 45 1020.4
20260509144059 70 0 0.0 0.0 0.00 0.00 0.00 47 1020.5
20260509143059 70 0 0.0 0.0 0.00 0.00 0.00 46 1020.5
20260509142101 71 0 0.0 0.0 0.00 0.00 0.00 47 1020.7
20260509141100 72 0 0.0 0.0 0.00 0.00 0.00 48 1020.6
20260509140059 71 0 0.0 0.0 0.00 0.00 0.00 47 1020.7
20260509135101 71 0 0.0 0.0 0.00 0.00 0.00 47 1020.8
20260509133103 71 0 0.0 0.0 0.00 0.00 0.00 48 1020.9
20260509132059 71 0 0.0 0.0 0.00 0.00 0.00 48 1021.0
20260509130058 70 0 0.0 0.0 0.00 0.00 0.00 51 1021.3
20260509124058 71 0 0.0 0.0 0.00 0.00 0.00 50 1021.5
20260509123100 71 0 0.0 0.0 0.00 0.00 0.00 49 1021.6
20260509122056 70 0 0.0 0.0 0.00 0.00 0.00 50 1021.7
20260509115101 68 0 0.0 0.0 0.00 0.00 0.00 51 1022.1
20260509113058 70 0 0.0 0.0 0.00 0.00 0.00 50 1022.2
20260509111058 69 0 0.0 0.0 0.00 0.00 0.00 52 1022.3
20260509105058 69 0 0.0 0.0 0.00 0.00 0.00 51 1022.4
20260509103055 70 0 0.0 0.0 0.00 0.00 0.00 53 1022.5
20260509102100 69 0 0.0 0.0 0.00 0.00 0.00 53 1022.6
20260509101059 70 0 0.0 0.0 0.00 0.00 0.00 56 1022.6
20260509095059 69 0 0.0 0.0 0.00 0.00 0.00 58 1022.6
20260509093059 68 0 0.0 0.0 0.00 0.00 0.00 60 1022.7
20260509092056 67 0 0.0 0.0 0.00 0.00 0.00 60 1022.7
20260509091056 66 0 0.0 0.0 0.00 0.00 0.00 60 1022.7
20260509090057 66 0 0.0 0.0 0.00 0.00 0.00 61 1022.8
20260509085056 65 0 0.0 0.0 0.00 0.00 0.00 62 1022.8
20260509084059 64 0 0.0 0.0 0.00 0.00 0.00 64 1023.0
20260509083058 62 0 0.0 0.0 0.00 0.00 0.00 69 1023.0
20260509082059 61 0 0.0 0.0 0.00 0.00 0.00 71 1023.1
20260509081102 60 0 0.0 0.0 0.00 0.00 0.00 73 1023.2
20260509080059 60 0 0.0 0.0 0.00 0.00 0.00 73 1023.3
20260509075057 59 0 0.0 0.0 0.00 0.00 0.00 74 1023.3
20260509074059 58 0 0.0 0.0 0.00 0.00 0.00 76 1023.4
20260509072058 57 0 0.0 0.0 0.00 0.00 0.00 77 1023.4
20260509071057 56 0 0.0 0.0 0.00 0.00 0.00 83 1023.4
20260509070055 56 0 0.0 0.0 0.00 0.00 0.00 84 1023.4
20260509065054 54 0 0.0 0.0 0.00 0.00 0.00 85 1023.3
20260509064055 53 0 0.0 0.0 0.00 0.00 0.00 87 1023.3
20260509063057 52 0 0.0 0.0 0.00 0.00 0.00 89 1023.3
20260509062057 52 0 0.0 0.0 0.00 0.00 0.00 90 1023.3
20260509060057 50 0 0.0 0.0 0.00 0.00 0.00 90 1023.2
20260509054054 50 0 0.0 0.0 0.00 0.00 0.00 91 1023.1